Wind_Speed
16 15 15 16 16 16 16 17 17 17 17 17 18 18 18 19 19 19 19 19 20 20 20 20 21 21 21 21 21 21 22 21 21 21 22 22 23 23
19 19 19 19 20 20 20 20 20 21 21 21 21 21 22 22 22 23 23 23 23 23 23 24 24 24 24 24 24 24 24 24 24 24 24 24 25 25
23 23 23 23 23 24 24 24 24 24 25 25 25 26 26 26 26 26 27 27 27 27 27 27 27 27 27 27 28 28 28 28 27 27 27 27 27 27
26 26 27 27 27 28 28 28 28 29 29 29 30 30 30 30 30 30 31 31 31 30 31 30 30 30 30 31 31 31 31 31 31 31 31 30 30 30
28 29 30 30 30 31 31 32 32 32 32 33 33 34 34 34 34 34 34 34 34 34 34 34 34 34 34 34 34 34 34 34 34 34 34 34 34 33
31 32 32 33 33 34 34 35 35 35 36 36 37 37 37 38 38 38 38 38 38 38 38 38 38 38 38 38 38 38 38 38 38 38 38 37 37 37
33 34 35 35 36 37 37 38 38 38 39 39 39 40 40 40 40 41 41 40 40 41 41 41 42 41 41 41 41 41 41 41 41 41 41 41 41 40
34 35 36 37 38 38 39 40 40 40 40 41 42 42 42 42 42 43 43 43 43 43 43 43 44 44 44 44 43 43 43 44 44 44 44 44 44 43
36 37 38 39 40 42 43 43 43 43 43 43 44 43 44 45 45 45 45 46 46 47 47 45 46 47 47 47 46 46 46 47 47 47 47 47 47 46
38 39 40 41 41 42 43 43 43 43 44 45 46 45 46 47 47 47 47 47 47 47 48 48 48 49 50 49 49 49 49 50 50 50 50 50 50 50
40 40 41 42 43 43 44 44 45 47 47 47 48 49 49 48 49 49 49 49 49 49 50 51 50 51 52 52 52 52 52 53 54 55 54 53 53 53
41 42 42 44 44 44 45 46 47 48 48 48 49 50 50 50 51 51 51 51 51 51 52 53 53 53 53 53 53 54 55 55 56 57 57 57 57 57
42 43 44 46 47 47 47 47 48 49 49 50 50 51 51 51 51 52 52 53 53 53 53 54 54 55 55 55 55 56 58 58 59 60 60 60 60 60
44 45 45 46 47 48 48 48 49 50 50 51 51 52 53 53 54 55 56 56 56 56 56 56 57 57 58 58 58 59 60 61 61 62 62 62 62 61
46 47 49 50 51 51 51 52 52 53 53 54 54 54 54 55 55 56 56 57 58 58 59 59 59 60 61 61 61 61 61 62 63 63 63 63 64 64
49 50 51 53 54 54 55 56 56 57 57 57 57 57 57 57 57 57 57 58 58 58 60 60 61 61 61 61 61 62 62 62 63 63 63 63 63 63
52 53 55 56 57 57 58 58 58 58 58 57 57 57 57 57 57 57 57 58 58 58 59 59 60 60 60 59 59 60 60 59 59 59 59 59 59 60
53 54 55 56 57 57 57 57 57 57 57 57 57 57 57 57 57 57 57 57 57 57 57 56 57 57 56 55 56 56 56 56 56 55 55 55 55 56
54 55 55 55 56 56 56 56 56 56 55 55 56 56 56 56 56 55 55 55 54 53 53 53 52 51 50 49 50 51 52 52 52 51 50 51 51 52
54 54 54 53 53 53 53 53 53 53 53 52 52 52 51 51 50 50 50 49 48 48 47 47 47 46 46 44 43 44 46 46 46 46 47 48 48 48
51 51 50 50 49 49 49 48 48 48 47 46 46 45 45 44 44 44 43 42 42 41 41 41 41 41 40 39 38 38 39 40 40 40 40 41 42 42
46 46 45 45 44 44 43 43 42 42 41 40 40 40 39 39 39 38 38 38 37 37 36 36 36 36 35 35 34 33 33 34 34 35 35 36 36 36
41 40 40 40 39 38 38 38 37 37 36 36 35 35 35 34 34 34 34 33 32 32 31 31 31 31 31 30 30 30 30 30 31 31 32 33 33 32
Wind_Direction
260 263 267 270 273 277 279 281 282 282 282 282 282 282 281 280 279 279 279 279 279 278 278 278 277 276 275 275 275 274 274 274 273 272 271 270 269 269
262 264 267 270 273 275 277 279 280 280 281 280 280 280 279 279 279 279 278 278 278 278 277 277 276 275 275 274 274 273 273 273 272 272 271 270 269 269
264 267 268 269 272 274 276 278 279 279 279 279 279 278 278 278 278 278 279 278 277 277 276 276 276 275 275 274 273 273 272 272 272 272 272 271 271 271
266 268 270 271 272 273 274 276 277 278 278 278 278 277 277 277 277 277 277 277 277 276 275 275 275 276 276 275 274 273 272 272 272 271 271 270 270 271
268 269 270 271 272 272 274 274 276 277 277 277 277 277 276 276 276 276 276 276 277 276 275 275 275 275 275 275 275 274 273 273 272 272 271 271 271 270
269 270 271 271 272 272 273 273 274 276 276 276 277 277 276 276 275 275 275 276 276 276 276 276 275 274 274 274 274 274 273 273 273 272 272 271 271 271
271 271 272 272 272 273 273 273 274 275 275 275 275 276 276 276 276 275 274 274 274 275 275 276 275 275 274 274 274 273 272 272 272 272 271 271 271 271
273 273 274 274 275 276 276 275 274 274 275 275 275 275 275 275 276 275 274 274 274 274 274 274 275 275 275 274 273 272 272 273 273 272 272 271 270 270
276 277 276 277 277 277 277 277 277 275 274 273 274 275 275 275 274 273 273 274 275 274 273 274 274 274 274 273 273 273 272 272 273 272 272 271 270 270
277 277 277 278 278 279 278 276 276 276 275 275 274 274 275 275 274 274 273 273 274 274 274 276 275 275 274 274 275 274 274 274 274 273 272 271 271 270
278 277 277 277 278 280 281 279 278 278 277 277 276 275 275 275 275 275 275 274 274 274 274 275 274 274 274 275 275 275 274 274 274 274 274 273 272 271
280 279 279 279 280 282 281 280 279 279 279 278 277 277 277 276 276 276 277 277 276 276 275 275 275 275 275 275 276 275 275 274 274 274 274 274 273 272
280 281 281 279 280 280 281 280 279 279 279 279 278 278 278 277 276 277 277 277 277 277 277 277 277 277 277 276 276 276 276 276 276 275 274 274 273 273
281 281 280 280 281 280 280 281 280 279 279 279 279 279 279 279 278 278 278 278 277 277 277 278 279 279 279 278 278 277 277 277 277 276 276 275 274 273
282 281 281 281 282 281 282 282 281 280 280 280 280 280 280 280 279 279 279 279 279 279 279 279 279 280 280 280 280 279 278 278 278 277 276 275 274 273
283 282 282 282 281 281 282 282 282 281 281 281 281 281 280 280 280 280 280 280 281 281 280 280 280 280 281 281 281 280 279 279 279 278 277 276 275 274
285 284 284 284 283 283 283 283 282 282 282 282 281 281 281 281 281 281 281 281 281 281 281 281 281 282 282 281 281 281 281 280 280 279 278 276 275 274
287 286 286 285 285 284 284 284 283 283 283 282 282 282 281 281 282 282 282 281 282 281 281 281 282 282 282 281 281 281 281 281 281 280 279 277 275 274
289 288 287 286 286 285 285 284 284 284 283 283 283 283 282 282 282 281 282 282 282 282 282 282 282 282 282 282 282 282 282 282 281 280 279 278 277 276
291 290 289 288 287 286 286 285 285 284 283 283 283 283 283 282 282 282 281 282 282 282 282 282 282 282 283 283 282 282 282 282 281 281 280 279 278 277
292 291 290 289 289 288 287 287 286 285 284 284 283 283 283 283 282 281 281 281 282 282 282 281 281 281 282 282 283 282 282 283 283 284 283 280 279 278
295 294 293 292 291 290 289 288 287 286 285 284 284 284 283 283 282 281 281 281 282 281 281 281 281 281 282 283 284 284 284 284 285 286 287 285 282 280
298 297 296 295 294 293 292 290 289 288 286 285 284 283 284 284 283 281 281 281 281 281 282 281 281 281 281 283 285 286 286 285 286 287 288 288 286 283
Height
5872 5872 5872 5872 5872 5872 5872 5871 5871 5870 5870 5869 5868 5868 5867 5866 5865 5865 5864 5863 5862 5862 5861 5860 5860 5859 5859 5858 5858 5858 5857 5857 5857 5857 5857 5857 5857 5857
5868 5868 5868 5868 5868 5867 5867 5867 5866 5866 5865 5864 5864 5863 5862 5861 5860 5859 5859 5858 5857 5857 5856 5855 5854 5854 5853 5853 5853 5852 5852 5851 5851 5851 5851 5851 5851 5851
5863 5863 5863 5863 5862 5862 5862 5861 5860 5860 5859 5858 5857 5856 5856 5855 5854 5853 5853 5852 5851 5851 5850 5849 5848 5848 5847 5846 5846 5845 5845 5845 5845 5844 5844 5844 5844 5844
5857 5857 5857 5856 5856 5856 5855 5855 5854 5853 5852 5851 5850 5849 5848 5848 5847 5846 5845 5844 5844 5843 5842 5841 5841 5840 5840 5839 5838 5838 5837 5837 5837 5837 5837 5837 5837 5837
5850 5850 5849 5849 5849 5848 5848 5847 5846 5845 5844 5843 5842 5841 5840 5839 5839 5838 5837 5836 5835 5834 5834 5833 5832 5831 5831 5830 5830 5829 5829 5829 5828 5828 5828 5828 5828 5828
5842 5842 5841 5841 5840 5840 5839 5838 5837 5837 5835 5834 5833 5832 5831 5830 5829 5828 5827 5827 5826 5824 5824 5823 5822 5822 5821 5820 5820 5820 5819 5819 5819 5819 5818 5818 5818 5818
5833 5833 5832 5831 5831 5830 5830 5829 5828 5827 5825 5824 5823 5822 5821 5819 5818 5817 5817 5816 5815 5814 5813 5812 5811 5811 5810 5809 5809 5809 5808 5808 5808 5808 5807 5807 5807 5807
5824 5823 5822 5822 5821 5820 5819 5817 5817 5816 5814 5813 5812 5811 5810 5808 5807 5806 5805 5804 5804 5802 5801 5800 5798 5798 5797 5797 5797 5797 5796 5796 5795 5795 5795 5795 5795 5796
5815 5813 5812 5811 5810 5808 5807 5806 5805 5803 5802 5801 5800 5799 5798 5796 5795 5793 5792 5791 5791 5789 5788 5788 5786 5785 5784 5784 5784 5784 5783 5782 5782 5782 5782 5782 5782 5782
5805 5803 5802 5800 5799 5797 5795 5794 5792 5791 5789 5788 5787 5786 5785 5783 5781 5780 5779 5778 5777 5776 5774 5774 5773 5771 5770 5770 5769 5769 5769 5768 5767 5767 5767 5767 5767 5767
5794 5792 5791 5789 5787 5785 5783 5781 5780 5778 5776 5775 5773 5772 5770 5769 5767 5766 5765 5763 5763 5762 5760 5759 5759 5757 5756 5755 5754 5754 5753 5752 5752 5751 5751 5751 5750 5750
5783 5781 5779 5777 5775 5772 5770 5769 5767 5765 5763 5761 5759 5757 5756 5754 5753 5751 5750 5748 5747 5747 5745 5744 5743 5741 5741 5740 5739 5737 5736 5736 5735 5734 5734 5733 5733 5733
5772 5770 5767 5765 5762 5759 5757 5755 5753 5751 5748 5746 5744 5742 5740 5739 5737 5736 5734 5733 5731 5730 5729 5727 5726 5724 5723 5723 5722 5720 5719 5718 5717 5716 5716 5715 5715 5714
5761 5758 5755 5752 5749 5747 5744 5741 5739 5736 5734 5731 5729 5727 5725 5723 5721 5719 5717 5716 5714 5713 5711 5709 5708 5707 5706 5705 5704 5703 5700 5699 5697 5696 5696 5695 5695 5695
5748 5745 5742 5739 5735 5733 5730 5727 5724 5722 5719 5716 5714 5711 5709 5706 5704 5702 5700 5698 5697 5695 5693 5692 5690 5688 5687 5686 5685 5683 5681 5680 5678 5677 5675 5674 5674 5674
5734 5731 5727 5724 5720 5717 5714 5711 5708 5705 5702 5699 5697 5694 5692 5689 5687 5685 5682 5680 5679 5677 5675 5673 5671 5670 5668 5666 5664 5663 5661 5660 5658 5656 5654 5654 5653 5652
5719 5715 5711 5708 5704 5700 5697 5694 5690 5687 5684 5681 5679 5676 5674 5671 5669 5666 5664 5663 5661 5659 5657 5654 5652 5650 5649 5647 5645 5643 5641 5639 5637 5636 5634 5633 5633 5631
5703 5699 5695 5690 5686 5683 5679 5675 5672 5669 5666 5663 5660 5658 5655 5653 5651 5649 5646 5645 5643 5641 5638 5636 5633 5632 5630 5629 5627 5624 5622 5620 5618 5616 5614 5613 5613 5612
5687 5682 5678 5673 5669 5665 5661 5658 5654 5651 5648 5645 5643 5640 5637 5635 5633 5631 5628 5626 5624 5622 5620 5618 5616 5614 5613 5613 5611 5606 5604 5602 5600 5598 5596 5594 5593 5593
5669 5665 5660 5656 5652 5648 5644 5641 5637 5634 5631 5628 5626 5623 5621 5618 5616 5613 5611 5609 5607 5605 5604 5601 5600 5598 5597 5596 5595 5592 5587 5585 5583 5581 5579 5577 5575 5574
5653 5648 5644 5640 5636 5632 5628 5625 5621 5618 5615 5612 5610 5607 5605 5603 5601 5598 5596 5594 5592 5591 5589 5588 5586 5584 5582 5581 5580 5579 5575 5571 5568 5566 5564 5561 5559 5558
5637 5633 5629 5625 5621 5617 5613 5610 5606 5603 5601 5598 5596 5593 5591 5589 5587 5585 5583 5582 5580 5578 5576 5575 5573 5572 5570 5569 5567 5565 5563 5560 5556 5553 5550 5548 5545 5544
5624 5620 5615 5611 5608 5604 5600 5597 5594 5591 5588 5586 5583 5581 5579 5577 5575 5573 5571 5570 5568 5567 5565 5564 5563 5561 5559 5558 5556 5554 5552 5549 5546 5544 5541 5537 5534 5532